| time (UTC) | temp F | wind direction | speed MPH | gust MPH | rain 1hr in | rain 24hr in | rain mn in | humidity % | barometer mb |
| 20260902125911 | 91 | 188 | 1.0 | 7.0 | 0.00 | 0.00 | 0.00 | 24 | 1024.9 |
| 20260902124959 | 90 | 168 | 0.0 | 7.0 | 0.00 | 0.00 | 0.00 | 24 | 1024.9 |
| 20260902123921 | 89 | 175 | 0.0 | 8.0 | 0.00 | 0.00 | 0.00 | 25 | 1024.9 |
| 20260902122923 | 89 | 142 | 2.0 | 7.0 | 0.00 | 0.00 | 0.00 | 25 | 1025.0 |
| 20260902121930 | 89 | 165 | 5.0 | 14.0 | 0.00 | 0.00 | 0.00 | 26 | 1025.2 |
| 20260902120922 | 89 | 171 | 0.0 | 5.0 | 0.00 | 0.00 | 0.00 | 27 | 1025.2 |
| 20260902115924 | 89 | 169 | 1.0 | 6.0 | 0.00 | 0.00 | 0.00 | 27 | 1025.3 |
| 20260902114918 | 88 | 167 | 1.0 | 5.0 | 0.00 | 0.00 | 0.00 | 27 | 1025.4 |
| 20260902113926 | 88 | 171 | 0.0 | 7.0 | 0.00 | 0.00 | 0.00 | 28 | 1025.5 |
| 20260902112911 | 89 | 192 | 0.0 | 10.0 | 0.00 | 0.00 | 0.00 | 28 | 1025.6 |
| 20260902111918 | 88 | 186 | 0.0 | 8.0 | 0.00 | 0.00 | 0.00 | 28 | 1025.7 |
| 20260902110929 | 87 | 182 | 3.0 | 7.0 | 0.00 | 0.00 | 0.00 | 27 | 1025.7 |
| 20260902105924 | 86 | 190 | 1.0 | 7.0 | 0.00 | 0.00 | 0.00 | 28 | 1025.8 |
| 20260902104917 | 86 | 180 | 0.0 | 8.0 | 0.00 | 0.00 | 0.00 | 28 | 1025.8 |
| 20260902103924 | 86 | 180 | 1.0 | 7.0 | 0.00 | 0.00 | 0.00 | 28 | 1025.9 |
| 20260902102926 | 86 | 178 | 1.0 | 8.0 | 0.00 | 0.00 | 0.00 | 29 | 1025.8 |
| 20260902101915 | 85 | 169 | 0.0 | 7.0 | 0.00 | 0.00 | 0.00 | 30 | 1025.7 |
| 20260902100928 | 85 | 169 | 2.0 | 7.0 | 0.00 | 0.00 | 0.00 | 29 | 1025.8 |
| 20260902095929 | 84 | 167 | 1.0 | 6.0 | 0.00 | 0.00 | 0.00 | 29 | 1025.8 |
| 20260902094917 | 83 | 166 | 1.0 | 6.0 | 0.00 | 0.00 | 0.00 | 28 | 1025.8 |
| 20260902092929 | 81 | 286 | 0.0 | 5.0 | 0.00 | 0.00 | 0.00 | 30 | 1025.7 |
| 20260902091918 | 79 | 302 | 0.0 | 0.0 | 0.00 | 0.00 | 0.00 | 31 | 1025.6 |
| 20260902090927 | 78 | 302 | 0.0 | 0.0 | 0.00 | 0.00 | 0.00 | 32 | 1025.6 |
| 20260902085911 | 77 | 302 | 0.0 | 3.0 | 0.00 | 0.00 | 0.00 | 33 | 1025.6 |
| 20260902084920 | 77 | 299 | 0.0 | 2.0 | 0.00 | 0.00 | 0.00 | 34 | 1025.5 |
| 20260902083928 | 76 | 299 | 1.0 | 4.0 | 0.00 | 0.00 | 0.00 | 34 | 1025.4 |
| 20260902082916 | 74 | 298 | 0.0 | 2.0 | 0.00 | 0.00 | 0.00 | 35 | 1025.3 |
| 20260902081913 | 74 | 298 | 0.0 | 0.0 | 0.00 | 0.00 | 0.00 | 36 | 1025.3 |
| 20260902080923 | 73 | 298 | 0.0 | 0.0 | 0.00 | 0.00 | 0.00 | 36 | 1025.3 |
| 20260902075926 | 73 | 298 | 0.0 | 0.0 | 0.00 | 0.00 | 0.00 | 38 | 1025.1 |
| 20260902074915 | 71 | 304 | 0.0 | 0.0 | 0.00 | 0.00 | 0.00 | 38 | 1025.2 |
| 20260902073926 | 69 | 304 | 0.0 | 0.0 | 0.00 | 0.00 | 0.00 | 40 | 1025.2 |
| 20260902072928 | 68 | 304 | 0.0 | 0.0 | 0.00 | 0.00 | 0.00 | 44 | 1025.1 |
| 20260902071914 | 67 | 304 | 0.0 | 0.0 | 0.00 | 0.00 | 0.00 | 45 | 1025.2 |
| 20260902070925 | 66 | 304 | 0.0 | 0.0 | 0.00 | 0.00 | 0.00 | 45 | 1025.1 |
| 20260902065929 | 65 | 304 | 0.0 | 0.0 | 0.00 | 0.00 | 0.00 | 46 | 1025.1 |
| 20260902064918 | 64 | 304 | 0.0 | 0.0 | 0.00 | 0.00 | 0.00 | 50 | 1025.0 |
| 20260902063929 | 62 | 304 | 0.0 | 0.0 | 0.00 | 0.00 | 0.00 | 50 | 1024.8 |
| 20260902062911 | 61 | 304 | 0.0 | 0.0 | 0.00 | 0.00 | 0.00 | 49 | 1024.7 |
| 20260902061925 | 61 | 304 | 0.0 | 0.0 | 0.00 | 0.00 | 0.00 | 49 | 1024.7 |
| 20260902060914 | 61 | 304 | 0.0 | 0.0 | 0.00 | 0.00 | 0.00 | 48 | 1024.6 |
| 20260902054918 | 61 | 304 | 0.0 | 0.0 | 0.00 | 0.00 | 0.00 | 48 | 1024.4 |
| 20260902053924 | 61 | 304 | 0.0 | 0.0 | 0.00 | 0.00 | 0.00 | 48 | 1024.2 |
| 20260902052923 | 61 | 304 | 0.0 | 0.0 | 0.00 | 0.00 | 0.00 | 47 | 1024.3 |
| 20260902051913 | 62 | 304 | 0.0 | 0.0 | 0.00 | 0.00 | 0.00 | 48 | 1024.3 |
| 20260902050924 | 62 | 304 | 0.0 | 0.0 | 0.00 | 0.00 | 0.00 | 46 | 1024.3 |
| 20260902045926 | 61 | 304 | 0.0 | 0.0 | 0.00 | 0.00 | 0.00 | 49 | 1024.1 |
| 20260902044912 | 60 | 304 | 0.0 | 0.0 | 0.00 | 0.00 | 0.00 | 51 | 1024.0 |
| 20260902042911 | 61 | 304 | 0.0 | 0.0 | 0.00 | 0.00 | 0.00 | 50 | 1023.8 |
| 20260902041921 | 61 | 304 | 0.0 | 0.0 | 0.00 | 0.00 | 0.00 | 50 | 1023.8 |
| 20260902040911 | 61 | 304 | 0.0 | 0.0 | 0.00 | 0.00 | 0.00 | 48 | 1023.9 |
| 20260902035913 | 62 | 304 | 0.0 | 0.0 | 0.00 | 0.00 | 0.00 | 49 | 1023.9 |
| 20260902034927 | 62 | 304 | 0.0 | 0.0 | 0.00 | 0.00 | 0.00 | 48 | 1023.8 |
| 20260902033917 | 63 | 304 | 0.0 | 0.0 | 0.00 | 0.00 | 0.00 | 46 | 1023.7 |
| 20260902032919 | 63 | 304 | 0.0 | 0.0 | 0.00 | 0.00 | 0.00 | 46 | 1023.8 |
| 20260902031928 | 64 | 304 | 0.0 | 0.0 | 0.00 | 0.00 | 0.00 | 44 | 1023.8 |
| 20260902030920 | 63 | 304 | 0.0 | 0.0 | 0.00 | 0.00 | 0.00 | 45 | 1023.7 |
| 20260902025922 | 63 | 304 | 0.0 | 0.0 | 0.00 | 0.00 | 0.00 | 45 | 1023.7 |
| 20260902024911 | 63 | 304 | 0.0 | 0.0 | 0.00 | 0.00 | 0.00 | 46 | 1023.7 |
| 20260902023919 | 63 | 304 | 0.0 | 0.0 | 0.00 | 0.00 | 0.00 | 46 | 1023.7 |
| 20260902022926 | 64 | 304 | 0.0 | 0.0 | 0.00 | 0.00 | 0.00 | 46 | 1023.6 |
| 20260902021915 | 64 | 304 | 0.0 | 0.0 | 0.00 | 0.00 | 0.00 | 46 | 1023.7 |
| 20260902020924 | 64 | 304 | 0.0 | 0.0 | 0.00 | 0.00 | 0.00 | 46 | 1023.5 |
| 20260902015925 | 66 | 304 | 0.0 | 0.0 | 0.00 | 0.00 | 0.00 | 44 | 1023.5 |
| 20260902014918 | 66 | 304 | 0.0 | 0.0 | 0.00 | 0.00 | 0.00 | 44 | 1023.5 |
| 20260902013926 | 66 | 304 | 0.0 | 0.0 | 0.00 | 0.00 | 0.00 | 44 | 1023.5 |
| 20260902013009 | 65 | 304 | 0.0 | 0.0 | 0.00 | 0.00 | 0.00 | 44 | 1023.5 |
| 20260902011913 | 65 | 304 | 0.0 | 0.0 | 0.00 | 0.00 | 0.00 | 45 | 1023.6 |
| 20260902010926 | 65 | 304 | 0.0 | 0.0 | 0.00 | 0.00 | 0.00 | 44 | 1023.7 |
| 20260902005924 | 65 | 304 | 0.0 | 0.0 | 0.00 | 0.00 | 0.00 | 45 | 1023.7 |
| 20260902004912 | 66 | 304 | 0.0 | 0.0 | 0.00 | 0.00 | 0.00 | 44 | 1023.7 |
| 20260902003919 | 66 | 304 | 0.0 | 0.0 | 0.00 | 0.00 | 0.00 | 44 | 1023.7 |
| 20260902002926 | 66 | 304 | 0.0 | 0.0 | 0.00 | 0.00 | 0.00 | 43 | 1023.6 |
| 20260902001913 | 66 | 304 | 0.0 | 0.0 | 0.00 | 0.00 | 0.00 | 43 | 1023.6 |
| 20260902000917 | 68 | 304 | 0.0 | 0.0 | 0.00 | 0.00 | 0.00 | 42 | 1023.5 |
| 20260901235919 | 69 | 304 | 0.0 | 0.0 | 0.00 | 0.00 | 0.00 | 40 | 1023.5 |
| 20260901234912 | 70 | 304 | 0.0 | 0.0 | 0.00 | 0.00 | 0.00 | 39 | 1023.4 |
| 20260901233919 | 70 | 304 | 0.0 | 0.0 | 0.00 | 0.00 | 0.00 | 38 | 1023.5 |
| 20260901232921 | 71 | 304 | 0.0 | 0.0 | 0.00 | 0.00 | 0.00 | 38 | 1023.4 |
| 20260901231928 | 71 | 304 | 0.0 | 0.0 | 0.00 | 0.00 | 0.00 | 37 | 1023.3 |
| 20260901230918 | 72 | 304 | 0.0 | 0.0 | 0.00 | 0.00 | 0.00 | 37 | 1023.4 |
| 20260901225921 | 72 | 304 | 0.0 | 0.0 | 0.00 | 0.00 | 0.00 | 37 | 1023.3 |
| 20260901224929 | 72 | 303 | 0.0 | 0.0 | 0.00 | 0.00 | 0.00 | 37 | 1023.3 |
| 20260901223918 | 73 | 303 | 0.0 | 1.0 | 0.00 | 0.00 | 0.00 | 36 | 1023.2 |
| 20260901222920 | 73 | 301 | 0.0 | 3.0 | 0.00 | 0.00 | 0.00 | 36 | 1023.2 |
| 20260901221912 | 74 | 297 | 0.0 | 1.0 | 0.00 | 0.00 | 0.00 | 35 | 1023.2 |
| 20260901220919 | 74 | 292 | 0.0 | 1.0 | 0.00 | 0.00 | 0.00 | 35 | 1023.1 |
| 20260901215921 | 74 | 292 | 0.0 | 0.0 | 0.00 | 0.00 | 0.00 | 35 | 1023.0 |
| 20260901214914 | 74 | 291 | 0.0 | 6.0 | 0.00 | 0.00 | 0.00 | 35 | 1023.1 |
| 20260901213920 | 74 | 241 | 0.0 | 5.0 | 0.00 | 0.00 | 0.00 | 35 | 1023.1 |
| 20260901212921 | 74 | 240 | 0.0 | 0.0 | 0.00 | 0.00 | 0.00 | 35 | 1023.0 |
| 20260901211929 | 75 | 240 | 0.0 | 3.0 | 0.00 | 0.00 | 0.00 | 35 | 1023.0 |
| 20260901210917 | 75 | 240 | 0.0 | 1.0 | 0.00 | 0.00 | 0.00 | 34 | 1023.0 |
| 20260901205920 | 76 | 240 | 0.0 | 0.0 | 0.00 | 0.00 | 0.00 | 33 | 1023.1 |
| 20260901204928 | 76 | 240 | 0.0 | 0.0 | 0.00 | 0.00 | 0.00 | 32 | 1023.0 |
| 20260901203916 | 77 | 240 | 0.0 | 0.0 | 0.00 | 0.00 | 0.00 | 32 | 1023.0 |
| 20260901202920 | 77 | 240 | 0.0 | 4.0 | 0.00 | 0.00 | 0.00 | 31 | 1022.9 |
| 20260901201916 | 77 | 234 | 1.0 | 5.0 | 0.00 | 0.00 | 0.00 | 30 | 1022.8 |
| 20260901200925 | 78 | 202 | 0.0 | 0.0 | 0.00 | 0.00 | 0.00 | 28 | 1022.5 |
| 20260901195929 | 78 | 202 | 0.0 | 3.0 | 0.00 | 0.00 | 0.00 | 28 | 1022.3 |
| 20260901194918 | 78 | 202 | 0.0 | 2.0 | 0.00 | 0.00 | 0.00 | 28 | 1022.0 |
| 20260901193912 | 78 | 202 | 0.0 | 1.0 | 0.00 | 0.00 | 0.00 | 27 | 1021.8 |
| 20260901192915 | 79 | 202 | 0.0 | 6.0 | 0.00 | 0.00 | 0.00 | 27 | 1021.6 |
| 20260901191922 | 79 | 186 | 0.0 | 0.0 | 0.00 | 0.00 | 0.00 | 26 | 1021.5 |
| 20260901190929 | 80 | 186 | 0.0 | 0.0 | 0.00 | 0.00 | 0.00 | 26 | 1021.4 |
| 20260901185913 | 81 | 186 | 0.0 | 4.0 | 0.00 | 0.00 | 0.00 | 25 | 1021.3 |
| 20260901184920 | 82 | 186 | 0.0 | 0.0 | 0.00 | 0.00 | 0.00 | 24 | 1021.2 |
| 20260901183928 | 82 | 186 | 0.0 | 0.0 | 0.00 | 0.00 | 0.00 | 24 | 1021.1 |
| 20260901182929 | 83 | 186 | 0.0 | 0.0 | 0.00 | 0.00 | 0.00 | 24 | 1021.1 |
| 20260901181928 | 84 | 187 | 0.0 | 1.0 | 0.00 | 0.00 | 0.00 | 24 | 1021.0 |
| 20260901180911 | 84 | 187 | 0.0 | 2.0 | 0.00 | 0.00 | 0.00 | 25 | 1021.0 |
| 20260901175916 | 84 | 186 | 0.0 | 2.0 | 0.00 | 0.00 | 0.00 | 25 | 1021.0 |
| 20260901174924 | 84 | 186 | 1.0 | 5.0 | 0.00 | 0.00 | 0.00 | 25 | 1020.8 |
| 20260901173911 | 85 | 184 | 0.0 | 5.0 | 0.00 | 0.00 | 0.00 | 25 | 1020.8 |
| 20260901172912 | 86 | 190 | 0.0 | 4.0 | 0.00 | 0.00 | 0.00 | 25 | 1020.9 |
| 20260901171920 | 86 | 190 | 0.0 | 6.0 | 0.00 | 0.00 | 0.00 | 25 | 1020.8 |
| 20260901170929 | 87 | 183 | 0.0 | 6.0 | 0.00 | 0.00 | 0.00 | 26 | 1020.8 |
| 20260901165914 | 86 | 177 | 0.0 | 7.0 | 0.00 | 0.00 | 0.00 | 25 | 1020.8 |
| 20260901165002 | 87 | 178 | 0.0 | 6.0 | 0.00 | 0.00 | 0.00 | 25 | 1020.8 |
| 20260901163919 | 87 | 193 | 0.0 | 7.0 | 0.00 | 0.00 | 0.00 | 25 | 1020.8 |
| 20260901162919 | 87 | 190 | 2.0 | 10.0 | 0.00 | 0.00 | 0.00 | 25 | 1020.8 |
| 20260901160921 | 88 | 201 | 3.0 | 8.0 | 0.00 | 0.00 | 0.00 | 26 | 1020.7 |
| 20260901155927 | 87 | 232 | 2.0 | 7.0 | 0.00 | 0.00 | 0.00 | 26 | 1020.7 |
| 20260901154914 | 88 | 156 | 2.0 | 11.0 | 0.00 | 0.00 | 0.00 | 26 | 1020.8 |
| 20260901153919 | 89 | 184 | 2.0 | 9.0 | 0.00 | 0.00 | 0.00 | 25 | 1020.7 |
| 20260901152921 | 88 | 185 | 2.0 | 11.0 | 0.00 | 0.00 | 0.00 | 26 | 1020.7 |
| 20260901150918 | 89 | 192 | 2.0 | 10.0 | 0.00 | 0.00 | 0.00 | 26 | 1020.8 |
| 20260901145919 | 88 | 266 | 4.0 | 13.0 | 0.00 | 0.00 | 0.00 | 26 | 1020.8 |
| 20260901144926 | 88 | 180 | 3.0 | 9.0 | 0.00 | 0.00 | 0.00 | 26 | 1020.9 |
| 20260901143914 | 88 | 178 | 2.0 | 7.0 | 0.00 | 0.00 | 0.00 | 27 | 1020.9 |
| 20260901142914 | 88 | 171 | 0.0 | 9.0 | 0.00 | 0.00 | 0.00 | 29 | 1020.8 |
| 20260901141922 | 88 | 175 | 4.0 | 11.0 | 0.00 | 0.00 | 0.00 | 28 | 1020.9 |
| 20260901140913 | 88 | 186 | 3.0 | 10.0 | 0.00 | 0.00 | 0.00 | 29 | 1021.0 |
| 20260901135912 | 88 | 175 | 2.0 | 11.0 | 0.00 | 0.00 | 0.00 | 29 | 1021.1 |
| 20260901134918 | 88 | 187 | 3.0 | 12.0 | 0.00 | 0.00 | 0.00 | 29 | 1021.2 |
| 20260901133925 | 88 | 194 | 3.0 | 8.0 | 0.00 | 0.00 | 0.00 | 29 | 1021.2 |
| 20260901132924 | 87 | 182 | 1.0 | 7.0 | 0.00 | 0.00 | 0.00 | 31 | 1021.3 |
| 20260901131930 | 86 | 178 | 1.0 | 9.0 | 0.00 | 0.00 | 0.00 | 32 | 1021.4 |
| 20260901130920 | 86 | 180 | 2.0 | 9.0 | 0.00 | 0.00 | 0.00 | 32 | 1021.5 |